[[{"header":{"parameterUnit":"m.s-1","parameterCategory":1,"la1":30.2991,"la2":30.254,"lo1":-89.0895,"lo2":-89.0444,"dy":0.0017,"dx":0.0017,"nx":28,"ny":28,"refTime":"2023-09-07T09:00:00:Z","depth":0,"parameterNumber":2,"parameterNumberName":"U-component_of_WINDS"},"data":[0,0,0,0,0,0,0,0,0,0,0,0,0,0,0,0,0,0,0,0,0,0,0,0,0,0,0,0,0,0,0,0,0,0,0,0,0,0,0,0,0,0,0,0,0,0,0,0,0,0,0,0,0,0,0,0,0,0,0.6513,0.6514,0,0.6559,0.656,0.656,0.6573,0.6573,0.6573,0.6573,0.6617,0.6619,0.662,0,0,0,0,0,0,0,0,0,0,0,0,0,0.6434,0.6436,0.6513,0.6514,0.6514,0.6559,0.656,0.656,0.6573,0.6573,0.6573,0.6573,0.6617,0.6619,0.662,0,0,0,0,0,0,0,0,0,0,0,0,0,0.6473,0.6436,0.6513,0.6526,0.6528,0.6559,0.656,0.656,0.6573,0.6573,0.6573,0.6572,0.6616,0.6619,0.6621,0.6641,0,0,0.6627,0.6628,0,0,0,0,0,0,0,0,0.6471,0.6476,0.6524,0.6526,0.6527,0.656,0.6548,0.6587,0.6574,0.6556,0.6573,0.6572,0.6599,0.6602,0.6611,0.6643,0.6645,0.6627,0.6629,0.6629,0.663,0,0,0,0,0,0,0,0.6468,0.6474,0.6531,0.6525,0.6527,0.6529,0.6534,0.6556,0.6579,0.6558,0.6559,0.6564,0.6599,0.6609,0.6613,0.6646,0.6627,0.6629,0.663,0.6631,0.6694,0.6695,0,0,0,0,0,0,0.6464,0.6472,0.653,0.6533,0.6498,0.6531,0.6537,0.655,0.6579,0.6583,0.6564,0.6565,0.6606,0.661,0.6614,0.6639,0.6629,0.6631,0.6633,0.6694,0.6694,0.6695,0,0,0,0,0,0,0.6462,0.6469,0.6528,0.6503,0.651,0.6533,0.6548,0.6551,0.6561,0.6584,0.6588,0.657,0.6606,0.6611,0.6634,0.6641,0.6632,0.6634,0.6693,0.6694,0.6695,0.6689,0,0,0,0,0,0,0.646,0.6468,0.6477,0.6503,0.6512,0.6548,0.6548,0.6552,0.6565,0.6566,0.659,0.6594,0.6606,0.6631,0.6636,0.6643,0.6636,0.6693,0.6694,0.6694,0.6688,0.6689,0.669,0,0,0,0,0,0.6457,0.6473,0.6477,0.6484,0.6523,0.6548,0.6553,0.6567,0.6565,0.6574,0.6588,0.6593,0.6639,0.6633,0.6639,0.6647,0.6693,0.6693,0.6694,0.6688,0.6689,0.669,0,0,0,0,0,0,0.6447,0.6477,0.6482,0.6507,0.6525,0.655,0.6561,0.6568,0.6586,0.6586,0.6602,0.6607,0.6628,0.664,0.6633,0.6667,0.6666,0.6668,0.6659,0.666,0.666,0.6657,0.6638,0,0,0,0,0,0.6448,0.6467,0.6491,0.6511,0.652,0.6539,0.6551,0.656,0.6579,0.6586,0.6602,0.662,0.6638,0.665,0.6668,0.669,0.6695,0.6699,0.6699,0.67,0.6701,0.6713,0.6714,0.6698,0.6698,0.6698,0,0,0.645,0.6468,0.6479,0.651,0.6525,0.6543,0.6545,0.6565,0.6578,0.6589,0.6611,0.6623,0.6644,0.6666,0.6677,0.6677,0.6707,0.6701,0.6701,0.6702,0.6714,0.6715,0.6716,0.6698,0.6698,0.6698,0,0,0.6462,0.6479,0.6496,0.6511,0.6534,0.6546,0.6551,0.6575,0.6584,0.6606,0.6615,0.663,0.6662,0.6675,0.6687,0.6703,0.6708,0.6708,0.6711,0.6722,0.6724,0.6725,0.673,0.6731,0.671,0.671,0.671,0,0.6461,0.649,0.6505,0.6523,0.6536,0.6547,0.6564,0.6578,0.6605,0.6613,0.6613,0.6652,0.6666,0.6691,0.6695,0.6704,0.6709,0.6706,0.6722,0.6724,0.6725,0.673,0.6732,0.671,0.671,0.671,0.671,0,0.6487,0.6506,0.6518,0.6544,0.6558,0.6576,0.6593,0.6605,0.6612,0.6624,0.6646,0.6664,0.6686,0.6692,0.67,0.6718,0.6717,0.6719,0.6718,0.6726,0.6731,0.6733,0.6709,0.671,0.671,0.671,0,0,0.6495,0.6529,0.6532,0.6544,0.6569,0.6584,0.6602,0.6623,0.6633,0.6651,0.6665,0.6691,0.6693,0.6706,0.6715,0.6724,0.6735,0.6725,0.6726,0.6726,0.6755,0.6753,0.6755,0.6739,0.6739,0.6739,0.6753,0,0.651,0.6543,0.6556,0.6583,0.66,0.661,0.6625,0.6642,0.6653,0.6669,0.6681,0.6699,0.6701,0.6708,0.6718,0.6732,0.6741,0.6731,0.6751,0.6752,0.6745,0.6758,0.6756,0.6768,0.6755,0.6755,0.6756,0,0.6532,0.655,0.6578,0.6601,0.6608,0.6622,0.6642,0.6657,0.6676,0.6683,0.6697,0.6705,0.6723,0.672,0.6745,0.6737,0.6746,0.6754,0.6755,0.6757,0.6754,0.6759,0.6772,0.6774,0.6759,0.6759,0.6758,0,0.6533,0.6565,0.6586,0.6595,0.6622,0.6631,0.6643,0.6661,0.6673,0.669,0.6697,0.6716,0.6726,0.674,0.6753,0.675,0.6776,0.6775,0.6782,0.6781,0.6786,0.6786,0.68,0.6793,0.6793,0.6793,0.6793,0,0.6548,0.6565,0.6587,0.6599,0.6618,0.6633,0.665,0.6662,0.6678,0.6692,0.6702,0.6715,0.6732,0.6747,0.6757,0.6774,0.6779,0.6785,0.6787,0.6784,0.6783,0.679,0.6789,0.6793,0.6793,0.6793,0.6793,0,0.6553,0.6569,0.6592,0.6615,0.6621,0.6634,0.6653,0.6665,0.6677,0.6695,0.67,0.6718,0.6736,0.675,0.6773,0.678,0.6799,0.6802,0.6793,0.6794,0.68,0.6799,0.6818,0.6821,0.6813,0.6813,0.6813,0,0.6561,0.6574,0.6599,0.661,0.6621,0.6638,0.665,0.6665,0.6676,0.6698,0.6707,0.6726,0.6741,0.6769,0.6784,0.6801,0.6805,0.681,0.6807,0.6803,0.6804,0.6803,0.6804,0.681,0.681,0.681,0.681,0,0.6574,0.6581,0.6598,0.6618,0.6631,0.6647,0.6663,0.6671,0.6689,0.6701,0.672,0.6732,0.6756,0.6774,0.6793,0.6803,0.6809,0.6811,0.6814,0.681,0.6804,0.6807,0.6793,0.6811,0.6811,0.6811,0.6811,0.6811,0.658,0.6592,0.6611,0.6629,0.6643,0.6658,0.667,0.6683,0.6699,0.672,0.6727,0.6746,0.6763,0.6789,0.68,0.6814,0.6815,0.6819,0.6819,0.682,0.6819,0.6802,0.6818,0.6818,0.6818,0.6818,0.6818,0,0.6593,0.6605,0.6622,0.6644,0.6658,0.6664,0.6681,0.6692,0.6709,0.6725,0.674,0.6761,0.6778,0.6794,0.6812,0.682,0.6823,0.6824,0.6824,0.6826,0.6818,0.6814,0.6822,0.6822,0.6822,0.6822,0.6822,0.6822,0.6601,0.662,0.6629,0.6655,0.6668,0.6687,0.6696,0.6709,0.6722,0.6745,0.6759,0.677,0.6785,0.6804,0.682,0.6824,0.683,0.683,0.6835,0.6827,0.6827,0.6826,0.6822,0.6831,0.6831,0.6841,0.6842,0.6842]},{"header":{"parameterUnit":"m.s-1","parameterCategory":1,"la1":30.2991,"la2":30.254,"lo1":-89.0895,"lo2":-89.0444,"dy":0.0017,"dx":0.0017,"nx":28,"ny":28,"refTime":"2023-09-07T09:00:00:Z","depth":0,"parameterNumber":3,"parameterNumberName":"V-component_of_WINDS"},"data":[0,0,0,0,0,0,0,0,0,0,0,0,0,0,0,0,0,0,0,0,0,0,0,0,0,0,0,0,0,0,0,0,0,0,0,0,0,0,0,0,0,0,0,0,0,0,0,0,0,0,0,0,0,0,0,0,0,0,1.0133,1.0133,0,1.0138,1.0138,1.0138,1.0107,1.0106,1.0105,1.0104,1.0109,1.011,1.0111,0,0,0,0,0,0,0,0,0,0,0,0,0,1.0095,1.0096,1.0133,1.0133,1.0133,1.0138,1.0138,1.0138,1.0107,1.0106,1.0105,1.0104,1.0109,1.011,1.0111,0,0,0,0,0,0,0,0,0,0,0,0,0,1.0107,1.0096,1.0133,1.0118,1.0117,1.0138,1.0138,1.0138,1.0107,1.0106,1.0104,1.0103,1.0109,1.011,1.0112,1.0148,0,0,1.0116,1.0117,0,0,0,0,0,0,0,0,1.0106,1.0108,1.012,1.0119,1.0118,1.012,1.0127,1.0142,1.0107,1.0111,1.0104,1.0102,1.0114,1.0115,1.0119,1.0148,1.0148,1.0116,1.0117,1.0118,1.0118,0,0,0,0,0,0,0,1.0106,1.0108,1.0135,1.012,1.0119,1.0111,1.0111,1.0129,1.012,1.011,1.0108,1.0109,1.0113,1.0118,1.0119,1.0148,1.0116,1.0118,1.0118,1.0119,1.0206,1.0207,0,0,0,0,0,0,1.0107,1.0108,1.0135,1.0135,1.0109,1.0113,1.0113,1.0121,1.012,1.0118,1.011,1.0108,1.0116,1.0117,1.0119,1.016,1.0118,1.0119,1.012,1.0204,1.0206,1.0207,0,0,0,0,0,0,1.0106,1.011,1.0135,1.0121,1.0123,1.0115,1.0124,1.0122,1.0126,1.012,1.0118,1.0117,1.0115,1.0117,1.014,1.016,1.012,1.0121,1.0203,1.0205,1.0207,1.0244,0,0,0,0,0,0,1.0105,1.011,1.0124,1.0121,1.0124,1.0157,1.0125,1.0123,1.0129,1.0125,1.0125,1.0124,1.0114,1.0138,1.0142,1.0161,1.0122,1.0201,1.0203,1.0206,1.0241,1.0247,1.0252,0,0,0,0,0,1.0104,1.0134,1.0124,1.0128,1.0142,1.0158,1.0159,1.0148,1.0131,1.0144,1.014,1.0124,1.0157,1.0141,1.0145,1.0165,1.0199,1.0203,1.0206,1.0238,1.0246,1.0252,0,0,0,0,0,0,1.0139,1.0134,1.0123,1.0153,1.0156,1.0152,1.0169,1.0156,1.0164,1.016,1.0145,1.0145,1.0171,1.017,1.0153,1.0199,1.0175,1.0179,1.0199,1.0206,1.0212,1.0211,1.0124,0,0,0,0,0,1.0151,1.0164,1.0159,1.0186,1.0188,1.0178,1.0185,1.0176,1.0178,1.0179,1.0176,1.0179,1.019,1.0198,1.0208,1.024,1.024,1.0256,1.0262,1.0267,1.027,1.0286,1.0293,1.0218,1.0218,1.0218,0,0,1.0174,1.0173,1.0183,1.0193,1.0194,1.0208,1.018,1.0196,1.0207,1.0182,1.0203,1.0202,1.0204,1.0232,1.0244,1.0232,1.0291,1.0271,1.0274,1.0276,1.029,1.0297,1.0304,1.022,1.022,1.0219,0,0,1.0224,1.0225,1.0247,1.0249,1.025,1.0244,1.0249,1.0247,1.0245,1.0266,1.0248,1.0259,1.0279,1.0281,1.0285,1.0334,1.0319,1.0338,1.0368,1.0383,1.0389,1.0395,1.0412,1.0418,1.0341,1.0341,1.0341,0,1.0254,1.0274,1.0261,1.0278,1.0283,1.026,1.0282,1.0284,1.0289,1.0293,1.0279,1.0303,1.0303,1.033,1.0342,1.0346,1.0351,1.0338,1.039,1.0395,1.0399,1.0415,1.0422,1.0344,1.0343,1.0343,1.0343,0,1.031,1.0324,1.0342,1.0347,1.0353,1.0373,1.0362,1.037,1.036,1.0354,1.0376,1.0375,1.0384,1.039,1.038,1.0416,1.0408,1.0392,1.0368,1.0409,1.0424,1.043,1.0347,1.0346,1.0345,1.0345,0,0,1.0383,1.0379,1.0386,1.0387,1.0387,1.0398,1.0416,1.0424,1.0431,1.0435,1.045,1.0466,1.0451,1.0455,1.0446,1.046,1.0498,1.0442,1.0442,1.0452,1.0536,1.0548,1.0555,1.0488,1.0489,1.049,1.0536,0,1.0432,1.0462,1.045,1.0482,1.0494,1.0473,1.0488,1.049,1.0485,1.0494,1.0489,1.0501,1.048,1.0483,1.0495,1.049,1.0514,1.0487,1.0501,1.0502,1.0501,1.0563,1.0576,1.0619,1.0541,1.0542,1.0543,0,1.0493,1.0498,1.0531,1.0527,1.0532,1.0547,1.0552,1.0562,1.0563,1.0558,1.0562,1.0549,1.0566,1.0542,1.0565,1.0546,1.0551,1.0549,1.0551,1.0552,1.0525,1.0565,1.0633,1.0639,1.0552,1.0551,1.0551,0,1.0542,1.0558,1.0579,1.0581,1.0578,1.0588,1.0587,1.0586,1.0592,1.0597,1.06,1.0607,1.0611,1.0617,1.0605,1.0589,1.063,1.0605,1.0626,1.0627,1.0636,1.0635,1.0705,1.064,1.0639,1.0639,1.0639,0,1.0598,1.0619,1.0601,1.0615,1.0637,1.0622,1.0645,1.0641,1.064,1.0652,1.0634,1.0645,1.063,1.064,1.0631,1.0651,1.0653,1.0649,1.0647,1.0651,1.0651,1.0654,1.0651,1.0641,1.0641,1.064,1.064,0,1.0657,1.0647,1.0668,1.0662,1.0661,1.0678,1.0673,1.0685,1.0678,1.0693,1.0696,1.0686,1.0696,1.0685,1.0695,1.0689,1.0716,1.0709,1.0716,1.0714,1.0735,1.0733,1.0809,1.0818,1.0747,1.0748,1.0748,0,1.0693,1.0708,1.0704,1.071,1.071,1.0721,1.0726,1.0711,1.0717,1.0718,1.073,1.0738,1.0745,1.0763,1.0756,1.0763,1.0756,1.0782,1.0757,1.0761,1.0756,1.0755,1.0756,1.0787,1.0788,1.0789,1.0789,0,1.0758,1.0751,1.0759,1.0765,1.0771,1.0775,1.0778,1.0784,1.0769,1.0776,1.0786,1.0791,1.0801,1.081,1.0815,1.0814,1.0799,1.0797,1.0802,1.0807,1.081,1.0808,1.0729,1.0795,1.0795,1.0794,1.0794,1.0794,1.0806,1.0818,1.0817,1.0826,1.0826,1.0828,1.0839,1.0833,1.0841,1.0847,1.0838,1.0851,1.085,1.0855,1.0855,1.0865,1.0854,1.0862,1.0863,1.0866,1.0869,1.0808,1.0866,1.0866,1.0865,1.0865,1.0865,0,1.087,1.0867,1.0875,1.0879,1.0886,1.0871,1.0872,1.0879,1.089,1.089,1.0897,1.0908,1.0916,1.091,1.0916,1.0925,1.0919,1.0927,1.0927,1.0926,1.0878,1.0873,1.0933,1.0933,1.0933,1.0933,1.0933,1.0933,1.0904,1.0923,1.0916,1.0935,1.0932,1.0944,1.0946,1.0948,1.0948,1.0961,1.0968,1.0963,1.0961,1.0967,1.0974,1.0971,1.0975,1.0986,1.0981,1.0937,1.093,1.0924,1.0918,1.0987,1.0987,1.1029,1.1029,1.1029]}]]